This demonstration page uses our WeatherBlox Daily Observations layout. Learn more.

Left ArrowRight Arrow

39.29038, -76.61219

Hourly Observations for October 24, 2016

Temp ( °F °C ) Dew Point ( °F °C ) Humidity (%) Winds ( mph kmh ) Pressure ( in mb ) Visibility ( mi km ) Precip ( " mm )
12:54 am 00:54 undefined 56 13.3 45 7.2 67 67 undefined N/A 29.89 1012 N/A 0.00 0.00
1:54 am 01:54 undefined 56 13.3 45 7.2 67 67 undefined N/A 29.88 1012 N/A 0.00 0.00
2:54 am 02:54 undefined 55 12.8 44 6.7 67 67 undefined N/A 29.87 1012 N/A 0.00 0.00
3:54 am 03:54 undefined 56 13.3 43 6.1 62 62 undefined N/A 29.87 1012 N/A 0.00 0.00
4:54 am 04:54 undefined 56 13.3 43 6.1 62 62 undefined N/A 29.88 1012 N/A 0.00 0.00
5:54 am 05:54 undefined 55 12.8 43 6.1 64 64 undefined N/A 29.91 1013 N/A 0.00 0.00
6:54 am 06:54 undefined 60 15.6 44 6.7 56 56 undefined N/A 29.95 1014 N/A 0.00 0.00
7:54 am 07:54 undefined 60 15.6 45 7.2 58 58 undefined N/A 29.98 1015 N/A 0.00 0.00
8:54 am 08:54 undefined 62 16.7 44 6.7 52 52 undefined N/A 30.01 1016 N/A 0.00 0.00
9:54 am 09:54 undefined 63 17.2 42 5.6 47 47 undefined N/A 30.02 1017 N/A 0.00 0.00
10:54 am 10:54 undefined 64 17.8 42 5.6 45 45 undefined N/A 30.03 1017 N/A 0.00 0.00
11:54 am 11:54 undefined 65 18.3 42 5.6 43 43 undefined N/A 30.03 1017 N/A 0.00 0.00
12:54 pm 12:54 undefined 66 18.9 39 3.9 37 37 undefined N/A 30.02 1017 N/A 0.00 0.00
1:54 pm 13:54 undefined 66 18.9 40 4.4 39 39 undefined N/A 30.02 1017 N/A 0.00 0.00
2:54 pm 14:54 undefined 66 18.9 40 4.4 39 39 undefined N/A 30.01 1016 N/A 0.00 0.00
3:54 pm 15:54 undefined 65 18.3 39 3.9 39 39 undefined N/A 30.03 1017 N/A 0.00 0.00
4:54 pm 16:54 undefined 65 18.3 37 2.8 36 36 undefined N/A 30.05 1018 N/A 0.00 0.00
5:54 pm 17:54 undefined 64 17.8 37 2.8 37 37 undefined N/A 30.08 1019 N/A 0.00 0.00
6:54 pm 18:54 undefined 62 16.7 35 1.7 37 37 undefined N/A 30.12 1020 N/A 0.00 0.00
7:54 pm 19:54 undefined 60 15.6 33 0.6 36 36 undefined N/A 30.16 1021 N/A 0.00 0.00
8:54 pm 20:54 undefined 58 14.4 33 0.6 39 39 undefined N/A 30.18 1022 N/A 0.00 0.00
9:54 pm 21:54 undefined 56 13.3 33 0.6 42 42 undefined N/A 30.20 1023 N/A 0.00 0.00
10:54 pm 22:54 undefined 55 12.8 32 0 42 42 undefined N/A 30.22 1023 N/A 0.00 0.00
11:54 pm 23:54 undefined 52 11.1 33 0.6 49 49 undefined N/A 30.23 1024 N/A 0.00 0.00

Powered by AerisWeather